Date String (YYYY-MM-DD hh:mm:ss) UTC,Instrument flags,Ambient pressure (hPa),Sample flow (lpm),Bypass flow (lpm),Sample temperature (°C),Ambient temperature (°C),ASC tube jacket temperature (°C),LED temperature (°C),Box temperature (°C),Sample RH (%),Span deviation,Mass concentration (μg/m³),Mass concentration (μg/m³),Mass concentration (μg/m³)
DateTimeUTC,F1_M11,P_M11,Q1_M11,Q2_M11,T1_M11,T2_M11,T3_M11,T4_M11,T5_M11,U1_M11,ZSPAN_M11,X0_M11,X2_M11,X1_M11
2022-10-17 17:00:00,,0833.6,5.00,0.00,26.1,25.0,00.0,34.8,28.0,14.7,0000.0,0011.77,0006.29,0005.61
2022-10-17 17:01:00,,0833.7,4.98,0.00,26.1,25.0,00.0,34.8,28.1,14.8,0000.0,0011.82,0006.30,0005.62
2022-10-17 17:02:00,,0833.6,5.01,0.00,26.1,25.1,00.0,34.9,28.1,14.7,0000.0,0012.00,0006.33,0005.63
2022-10-17 17:03:00,,0833.7,4.99,0.00,26.2,25.1,00.0,34.9,28.1,14.4,0000.0,0011.68,0006.35,0005.65
2022-10-17 17:04:00,,0833.6,5.01,0.00,26.2,25.1,00.0,34.9,28.1,14.3,0000.0,0012.12,0006.35,0005.66
2022-10-17 17:05:00,,0833.6,4.99,0.00,26.2,25.1,00.0,34.9,28.1,14.5,0000.0,0012.41,0006.36,0005.68
2022-10-17 17:06:00,,0833.6,5.00,0.00,26.2,25.1,00.0,34.9,28.1,14.5,0000.0,0012.51,0006.40,0005.70
2022-10-17 17:07:00,,0833.6,5.01,0.00,26.2,25.1,00.0,34.9,28.1,14.5,0000.0,0012.73,0006.44,0005.72
2022-10-17 17:08:00,,0833.6,5.00,0.00,26.2,25.1,00.0,34.9,28.2,14.5,0000.0,0013.13,0006.43,0005.73
2022-10-17 17:09:00,,0833.6,4.99,0.00,26.2,25.1,00.0,35.0,28.2,14.5,0000.0,0013.04,0006.39,0005.74
2022-10-17 17:10:00,,0833.6,5.01,0.00,26.2,25.2,00.0,35.0,28.2,14.6,0000.0,0012.11,0006.35,0005.75
2022-10-17 17:11:00,,0833.6,5.00,0.00,26.3,25.2,00.0,35.0,28.2,14.5,0000.0,0011.80,0006.29,0005.74
2022-10-17 17:12:00,,0833.6,5.01,0.00,26.3,25.2,00.0,35.0,28.2,14.4,0000.0,0011.35,0006.26,0005.73
2022-10-17 17:13:00,,0833.6,5.00,0.00,26.3,25.2,00.0,35.0,28.3,14.3,0000.0,0012.03,0006.26,0005.73
2022-10-17 17:14:00,,0833.6,5.00,0.00,26.3,25.2,00.0,35.0,28.3,14.3,-000.3,0012.17,0006.26,0005.73
2022-10-17 17:15:00,,0833.6,4.99,0.00,26.3,25.2,00.0,35.0,28.3,14.3,-000.3,0012.19,0006.26,0005.72
2022-10-17 17:16:00,,0833.6,4.99,0.00,26.3,25.2,00.0,35.1,28.3,14.4,-000.0,0011.99,0006.27,0005.73
2022-10-17 17:17:00,,0833.5,5.00,0.00,26.3,25.2,00.0,35.1,28.3,14.5,0000.0,0011.90,0006.25,0005.72
2022-10-17 17:18:00,,0833.6,5.01,0.00,26.4,25.3,00.0,35.1,28.3,14.4,0000.0,0011.75,0006.23,0005.70
2022-10-17 17:19:00,,0833.6,4.99,0.00,26.4,25.3,00.0,35.1,28.3,14.4,0000.0,0011.35,0006.24,0005.68
2022-10-17 17:20:00,,0833.6,5.01,0.00,26.4,25.3,00.0,35.1,28.3,14.0,0000.0,0011.42,0006.23,0005.65
2022-10-17 17:21:00,,0833.5,4.99,0.00,26.4,25.3,00.0,35.1,28.3,14.0,0000.0,0011.66,0006.23,0005.61
2022-10-17 17:22:00,,0833.5,5.02,0.00,26.4,25.4,00.0,35.1,28.4,13.9,0000.0,0011.90,0006.20,0005.57
2022-10-17 17:23:00,,0833.6,4.98,0.00,26.4,25.4,00.0,35.2,28.4,14.0,0000.0,0011.91,0006.17,0005.52
2022-10-17 17:24:00,,0833.6,5.02,0.00,26.5,25.4,00.0,35.2,28.4,14.2,0000.0,0010.88,0006.10,0005.46
2022-10-17 17:25:00,,0833.6,4.99,0.00,26.5,25.4,00.0,35.2,28.4,14.1,0000.0,0010.40,0006.02,0005.40
2022-10-17 17:26:00,,0833.6,4.99,0.00,26.5,25.4,00.0,35.2,28.4,13.9,0000.0,0010.20,0005.99,0005.36
2022-10-17 17:27:00,,0833.6,5.00,0.00,26.5,25.4,00.0,35.2,28.4,13.7,0000.0,0010.37,0005.93,0005.31
2022-10-17 17:28:00,,0833.6,4.99,0.00,26.5,25.4,00.0,35.2,28.5,13.8,0000.0,0010.63,0005.89,0005.28
2022-10-17 17:29:00,,0833.6,5.01,0.00,26.5,25.4,00.0,35.2,28.5,13.8,0000.0,0011.00,0005.87,0005.25
2022-10-17 17:30:00,,0833.6,5.01,0.00,26.5,25.4,00.0,35.3,28.5,13.7,0000.0,0010.85,0005.82,0005.23
2022-10-17 17:31:00,,0833.6,4.98,0.00,26.6,25.5,00.0,35.3,28.5,13.8,0000.0,0010.76,0005.80,0005.22
2022-10-17 17:32:00,,0833.6,5.01,0.00,26.6,25.5,00.0,35.3,28.5,14.0,0000.0,0010.69,0005.76,0005.21
2022-10-17 17:33:00,,0833.6,5.01,0.00,26.6,25.5,00.0,35.3,28.5,14.1,0000.0,0010.80,0005.78,0005.24
2022-10-17 17:34:00,,0833.6,5.00,0.00,26.6,25.5,00.0,35.3,28.5,14.1,0000.0,0011.42,0005.76,0005.25
2022-10-17 17:35:00,,0833.6,4.99,0.00,26.6,25.6,00.0,35.3,28.6,13.9,0000.0,0011.71,0005.75,0005.26
2022-10-17 17:36:00,,0833.6,5.01,0.00,26.6,25.6,00.0,35.3,28.6,13.8,0000.0,0011.82,0005.78,0005.29
2022-10-17 17:37:00,,0833.6,5.00,0.00,26.6,25.6,00.0,35.4,28.6,13.8,0000.0,0011.55,0005.77,0005.32
2022-10-17 17:38:00,,0833.6,5.00,0.00,26.7,25.6,00.0,35.4,28.6,13.8,0000.0,0011.32,0005.79,0005.33
2022-10-17 17:39:00,,0833.6,5.00,0.00,26.7,25.6,00.0,35.4,28.6,13.8,0000.0,0011.83,0005.77,0005.32
2022-10-17 17:40:00,,0833.5,5.01,0.00,26.7,25.6,00.0,35.4,28.6,13.8,0000.0,0011.52,0005.78,0005.34
2022-10-17 17:41:00,,0833.5,4.99,0.00,26.7,25.7,00.0,35.4,28.6,13.9,0000.0,0011.54,0005.81,0005.35
2022-10-17 17:42:00,,0833.5,5.00,0.00,26.7,25.7,00.0,35.4,28.7,13.9,0000.0,0011.65,0005.82,0005.36
2022-10-17 17:43:00,,0833.5,5.00,0.00,26.8,25.7,00.0,35.5,28.7,13.9,0000.0,0011.54,0005.84,0005.37
2022-10-17 17:44:00,,0833.5,5.01,0.00,26.8,25.7,00.0,35.5,28.7,13.8,0000.0,0011.74,0005.85,0005.37
2022-10-17 17:45:00,,0833.6,4.99,0.00,26.8,25.8,00.0,35.5,28.7,13.8,0000.0,0011.19,0005.87,0005.37
2022-10-17 17:46:00,,0833.5,4.99,0.00,26.8,25.8,00.0,35.5,28.7,13.9,0000.0,0010.70,0005.87,0005.38
2022-10-17 17:47:00,,0833.5,5.01,0.00,26.8,25.8,00.0,35.5,28.7,13.8,0000.0,0010.79,0005.86,0005.37
2022-10-17 17:48:00,,0833.5,5.00,0.00,26.9,25.8,00.0,35.6,28.8,13.8,0000.0,0011.60,0005.88,0005.37
2022-10-17 17:49:00,,0833.5,5.00,0.00,26.9,25.8,00.0,35.6,28.8,13.8,0000.0,0012.50,0005.91,0005.38
2022-10-17 17:50:00,,0833.5,5.00,0.00,26.9,25.8,00.0,35.6,28.8,13.9,0000.8,0011.93,0005.94,0005.40
2022-10-17 17:51:00,,0833.5,5.00,0.00,26.9,25.8,00.0,35.6,28.8,13.9,0000.6,0012.31,0005.96,0005.40
2022-10-17 17:52:00,,0833.5,5.01,0.00,26.9,25.9,00.0,35.6,28.8,13.8,0000.0,0012.38,0005.97,0005.41
2022-10-17 17:53:00,,0833.5,5.00,0.00,26.9,25.9,00.0,35.6,28.9,14.0,0000.2,0013.00,0006.00,0005.43
2022-10-17 17:54:00,,0833.5,5.00,0.00,27.0,25.9,00.0,35.7,28.9,13.9,0000.9,0013.37,0005.99,0005.44
2022-10-17 17:55:00,,0833.5,5.00,0.00,27.0,25.9,00.0,35.7,28.9,13.8,0000.4,0014.20,0006.00,0005.46
2022-10-17 17:56:00,,0833.5,5.00,0.00,27.0,25.9,00.0,35.7,28.9,13.8,0000.7,0014.13,0006.01,0005.47
2022-10-17 17:57:00,,0833.5,5.00,0.00,27.0,25.9,00.0,35.7,29.0,13.7,0000.9,0014.25,0006.07,0005.49
2022-10-17 17:58:00,,0833.5,4.99,0.00,27.0,25.9,00.0,35.7,29.0,13.8,0000.8,0014.15,0006.10,0005.52
2022-10-17 17:59:00,,0833.5,5.00,0.00,27.0,26.0,00.0,35.7,29.0,13.8,0000.8,0014.18,0006.10,0005.53
